[[{"header":{"parameterUnit":"m.s-1","parameterCategory":1,"la1":30.2991,"la2":30.254,"lo1":-89.0895,"lo2":-89.0444,"dy":0.0017,"dx":0.0017,"nx":28,"ny":28,"refTime":"2025-04-05T03:00:00:Z","depth":0,"parameterNumber":2,"parameterNumberName":"U-component_of_WINDS"},"data":[0,0,0,0,0,0,0,0,0,0,0,0,0,0,0,0,0,0,0,0,0,0,0,0,0,0,0,0,0,0,0,0,0,0,0,0,0,0,0,0,0,0,0,0,0,0,0,0,0,0,0,0,0,0,0,0,0,0,-4.5063,-4.5064,0,-4.5168,-4.5169,-4.517,-4.5181,-4.518,-4.5179,-4.5178,-4.5285,-4.5289,-4.5293,0,0,0,0,0,0,0,0,0,0,0,0,0,-4.4873,-4.4877,-4.5063,-4.5065,-4.5066,-4.5168,-4.5169,-4.5171,-4.5181,-4.518,-4.5179,-4.5177,-4.5284,-4.5288,-4.5293,0,0,0,0,0,0,0,0,0,0,0,0,0,-4.4965,-4.4878,-4.5063,-4.5083,-4.5086,-4.5167,-4.5169,-4.5171,-4.5182,-4.518,-4.5178,-4.5177,-4.5282,-4.5288,-4.5294,-4.5361,0,0,-4.5311,-4.5314,0,0,0,0,0,0,0,0,-4.4959,-4.4972,-4.5079,-4.5082,-4.5086,-4.516,-4.5142,-4.5235,-4.5182,-4.5145,-4.5178,-4.5176,-4.5245,-4.5253,-4.5277,-4.5366,-4.5371,-4.5312,-4.5315,-4.5318,-4.5319,0,0,0,0,0,0,0,-4.4953,-4.4967,-4.5105,-4.5081,-4.5085,-4.5088,-4.5099,-4.5159,-4.5203,-4.5148,-4.515,-4.5162,-4.5246,-4.5271,-4.5279,-4.5373,-4.5312,-4.5317,-4.532,-4.5322,-4.5524,-4.5525,0,0,0,0,0,0,-4.4943,-4.4962,-4.5101,-4.5108,-4.5017,-4.5092,-4.5105,-4.5138,-4.5202,-4.521,-4.5163,-4.5162,-4.5262,-4.5272,-4.5283,-4.5366,-4.5318,-4.5323,-4.5326,-4.5522,-4.5524,-4.5526,0,0,0,0,0,0,-4.4939,-4.4955,-4.5097,-4.5035,-4.5053,-4.5097,-4.5134,-4.5141,-4.5165,-4.5213,-4.5221,-4.518,-4.5261,-4.5275,-4.5342,-4.537,-4.5326,-4.5331,-4.552,-4.5522,-4.5525,-4.5533,0,0,0,0,0,0,-4.4933,-4.4954,-4.498,-4.5036,-4.5057,-4.5154,-4.5136,-4.5144,-4.5175,-4.5175,-4.5231,-4.5239,-4.5261,-4.5333,-4.5348,-4.5377,-4.5335,-4.5517,-4.5521,-4.5524,-4.553,-4.5536,-4.5541,0,0,0,0,0,-4.4927,-4.4978,-4.4981,-4.4998,-4.509,-4.5155,-4.5168,-4.5191,-4.5178,-4.5204,-4.5235,-4.5238,-4.5365,-4.534,-4.5356,-4.5388,-4.5515,-4.552,-4.5524,-4.5528,-4.5535,-4.554,0,0,0,0,0,0,-4.4923,-4.4985,-4.4989,-4.506,-4.5103,-4.5157,-4.5191,-4.5197,-4.5244,-4.5242,-4.527,-4.5282,-4.5348,-4.5375,-4.5346,-4.5457,-4.5439,-4.5447,-4.5437,-4.5443,-4.5448,-4.5439,-4.534,0,0,0,0,0,-4.4931,-4.4979,-4.5031,-4.5088,-4.5109,-4.5147,-4.5176,-4.5191,-4.5236,-4.5254,-4.5289,-4.5333,-4.5383,-4.5415,-4.5464,-4.5535,-4.5548,-4.5565,-4.557,-4.5574,-4.558,-4.562,-4.5628,-4.554,-4.554,-4.554,0,0,-4.4947,-4.4987,-4.5015,-4.5089,-4.5123,-4.5172,-4.5161,-4.5214,-4.525,-4.5262,-4.5326,-4.5355,-4.5405,-4.5475,-4.5507,-4.5499,-4.5608,-4.558,-4.5582,-4.5586,-4.5625,-4.5633,-4.5641,-4.5543,-4.5542,-4.5542,0,0,-4.5001,-4.5036,-4.5088,-4.5123,-4.5175,-4.52,-4.5213,-4.5267,-4.5286,-4.5352,-4.5361,-4.5406,-4.5491,-4.5527,-4.5556,-4.5625,-4.5629,-4.5641,-4.5666,-4.5704,-4.5711,-4.5717,-4.5741,-4.5749,-4.5646,-4.5646,-4.5647,0,-4.5014,-4.5088,-4.5113,-4.5165,-4.5197,-4.5211,-4.5263,-4.5296,-4.5362,-4.5383,-4.5374,-4.5482,-4.5517,-4.5595,-4.5612,-4.5636,-4.565,-4.5633,-4.5708,-4.5715,-4.5721,-4.5744,-4.5753,-4.5647,-4.5647,-4.5647,-4.5647,0,-4.5101,-4.5152,-4.5188,-4.5251,-4.5287,-4.5339,-4.5373,-4.5407,-4.5419,-4.5445,-4.5512,-4.5555,-4.5613,-4.5633,-4.5645,-4.5713,-4.5706,-4.5702,-4.5684,-4.573,-4.5751,-4.5761,-4.5649,-4.5648,-4.5648,-4.5648,0,0,-4.5153,-4.5231,-4.5244,-4.5272,-4.5332,-4.5372,-4.5426,-4.5482,-4.551,-4.5556,-4.56,-4.5674,-4.567,-4.5704,-4.5721,-4.5755,-4.5806,-4.5747,-4.5748,-4.5755,-4.5882,-4.5883,-4.5893,-4.581,-4.5812,-4.5813,-4.5878,0,-4.5213,-4.5307,-4.5332,-4.5412,-4.546,-4.5474,-4.5521,-4.5562,-4.5589,-4.5633,-4.5663,-4.5713,-4.5706,-4.5726,-4.5761,-4.5792,-4.5831,-4.5788,-4.5851,-4.5853,-4.5836,-4.5905,-4.5906,-4.5965,-4.5887,-4.5888,-4.5889,0,-4.5294,-4.5341,-4.5426,-4.548,-4.5501,-4.5542,-4.5596,-4.5638,-4.5687,-4.5703,-4.5741,-4.5755,-4.5812,-4.5792,-4.587,-4.584,-4.5868,-4.5888,-4.589,-4.5896,-4.5872,-4.591,-4.5984,-4.5992,-4.5903,-4.5902,-4.5901,0,-4.5323,-4.5408,-4.5469,-4.5494,-4.5558,-4.5587,-4.5615,-4.5662,-4.5694,-4.5742,-4.5763,-4.5817,-4.5846,-4.5887,-4.5916,-4.5899,-4.5991,-4.5974,-4.6006,-4.6005,-4.6023,-4.6021,-4.61,-4.6044,-4.6044,-4.6043,-4.6043,0,-4.5385,-4.5436,-4.5482,-4.552,-4.5578,-4.5607,-4.5663,-4.5693,-4.5734,-4.5778,-4.5794,-4.5835,-4.5871,-4.5917,-4.594,-4.6,-4.6014,-4.6029,-4.6034,-4.6026,-4.6024,-4.6043,-4.6039,-4.6046,-4.6045,-4.6045,-4.6044,0,-4.5425,-4.5459,-4.5527,-4.5583,-4.5598,-4.5638,-4.5686,-4.5723,-4.5751,-4.5806,-4.5821,-4.5864,-4.5919,-4.5952,-4.6022,-4.6037,-4.6104,-4.6108,-4.6087,-4.6089,-4.6119,-4.6115,-4.6212,-4.6226,-4.6161,-4.6161,-4.6162,0,-4.5462,-4.5502,-4.5562,-4.5593,-4.5621,-4.567,-4.5704,-4.5735,-4.5769,-4.5827,-4.5857,-4.5914,-4.596,-4.6047,-4.6084,-4.6138,-4.6143,-4.6173,-4.6151,-4.6142,-4.6142,-4.6138,-4.6142,-4.6176,-4.6177,-4.6177,-4.6178,0,-4.5524,-4.5539,-4.5586,-4.5639,-4.5678,-4.5722,-4.5765,-4.579,-4.5828,-4.5866,-4.5922,-4.5958,-4.6029,-4.6084,-4.6141,-4.6171,-4.6181,-4.6185,-4.6195,-4.6186,-4.6172,-4.6179,-4.6095,-4.6182,-4.6181,-4.6181,-4.6181,-4.6181,-4.5563,-4.5598,-4.5646,-4.5699,-4.5735,-4.5775,-4.5813,-4.5845,-4.5893,-4.5953,-4.5969,-4.6028,-4.6076,-4.6153,-4.6185,-4.6231,-4.6227,-4.6241,-4.6245,-4.6247,-4.6247,-4.6166,-4.6242,-4.6242,-4.6242,-4.6242,-4.6242,0,-4.5624,-4.5656,-4.5704,-4.5764,-4.5805,-4.5811,-4.586,-4.5894,-4.5946,-4.599,-4.6035,-4.61,-4.6154,-4.6197,-4.6252,-4.6281,-4.6287,-4.6295,-4.6292,-4.6299,-4.6249,-4.6234,-4.6289,-4.6289,-4.6289,-4.6289,-4.6289,-4.6289,-4.5661,-4.5721,-4.5742,-4.582,-4.5852,-4.591,-4.5937,-4.5974,-4.601,-4.6081,-4.6126,-4.6154,-4.6197,-4.6256,-4.6306,-4.6318,-4.6337,-4.6343,-4.6355,-4.6307,-4.6302,-4.6297,-4.6283,-4.6348,-4.6348,-4.6401,-4.6401,-4.6401]},{"header":{"parameterUnit":"m.s-1","parameterCategory":1,"la1":30.2991,"la2":30.254,"lo1":-89.0895,"lo2":-89.0444,"dy":0.0017,"dx":0.0017,"nx":28,"ny":28,"refTime":"2025-04-05T03:00:00:Z","depth":0,"parameterNumber":3,"parameterNumberName":"V-component_of_WINDS"},"data":[0,0,0,0,0,0,0,0,0,0,0,0,0,0,0,0,0,0,0,0,0,0,0,0,0,0,0,0,0,0,0,0,0,0,0,0,0,0,0,0,0,0,0,0,0,0,0,0,0,0,0,0,0,0,0,0,0,0,4.5159,4.516,0,4.5296,4.5297,4.5299,4.5306,4.5305,4.5303,4.5302,4.5442,4.5447,4.5452,0,0,0,0,0,0,0,0,0,0,0,0,0,4.4906,4.4911,4.5159,4.516,4.5162,4.5295,4.5297,4.5299,4.5307,4.5305,4.5303,4.5301,4.544,4.5447,4.5453,0,0,0,0,0,0,0,0,0,0,0,0,0,4.5027,4.4912,4.5158,4.5182,4.5185,4.5295,4.5297,4.53,4.5307,4.5305,4.5302,4.53,4.5438,4.5446,4.5454,4.5549,0,0,4.5477,4.5481,0,0,0,0,0,0,0,0,4.502,4.5036,4.5177,4.518,4.5185,4.5282,4.526,4.5383,4.5308,4.5261,4.5302,4.5299,4.5391,4.5402,4.5433,4.5556,4.5562,4.5478,4.5483,4.5486,4.5488,0,0,0,0,0,0,0,4.5011,4.503,4.5213,4.5179,4.5184,4.5186,4.5201,4.5283,4.5337,4.5265,4.5266,4.5282,4.5392,4.5425,4.5436,4.5564,4.5478,4.5485,4.549,4.5493,4.5775,4.5778,0,0,0,0,0,0,4.4998,4.5023,4.5208,4.5217,4.5095,4.5193,4.5209,4.5253,4.5336,4.5347,4.5284,4.5282,4.5413,4.5427,4.5441,4.5561,4.5486,4.5493,4.5498,4.5773,4.5776,4.5779,0,0,0,0,0,0,4.4993,4.5015,4.5203,4.512,4.5145,4.52,4.5249,4.5257,4.529,4.5351,4.5361,4.5308,4.5412,4.543,4.5523,4.5566,4.5497,4.5504,4.5769,4.5774,4.5778,4.58,0,0,0,0,0,0,4.4986,4.5013,4.5049,4.5121,4.5149,4.5282,4.5251,4.5261,4.5303,4.5302,4.5376,4.5386,4.5412,4.5511,4.5531,4.5576,4.551,4.5766,4.5771,4.5776,4.5796,4.5805,4.5812,0,0,0,0,0,4.4977,4.5049,4.5051,4.5073,4.5195,4.5284,4.53,4.5328,4.5307,4.5344,4.5384,4.5383,4.5558,4.5521,4.5543,4.5591,4.5763,4.577,4.5776,4.5792,4.5803,4.5812,0,0,0,0,0,0,4.4979,4.5059,4.5061,4.5159,4.5215,4.5285,4.5333,4.5338,4.5401,4.5397,4.543,4.5447,4.5539,4.5574,4.5531,4.5689,4.5658,4.5669,4.5663,4.5674,4.5682,4.5673,4.5517,0,0,0,0,0,4.4992,4.5057,4.5123,4.5203,4.5231,4.5277,4.5317,4.5334,4.5393,4.5417,4.5463,4.5521,4.5589,4.5633,4.5699,4.5801,4.5819,4.5845,4.5853,4.5859,4.5869,4.5929,4.5942,4.58,4.58,4.58,0,0,4.5017,4.5068,4.5107,4.5205,4.525,4.5318,4.5297,4.5369,4.542,4.5428,4.5519,4.5555,4.5622,4.572,4.5766,4.5752,4.5912,4.5867,4.5872,4.5878,4.5937,4.595,4.5962,4.5804,4.5803,4.5803,0,0,4.5099,4.5143,4.5217,4.5263,4.5332,4.5363,4.5381,4.5451,4.5476,4.5568,4.5576,4.5638,4.5754,4.5802,4.5842,4.5945,4.5948,4.5966,4.6009,4.6067,4.6078,4.6088,4.6128,4.6142,4.5975,4.5975,4.5975,0,4.5122,4.5225,4.5253,4.5327,4.5371,4.5381,4.5457,4.55,4.5587,4.5618,4.5601,4.5749,4.5795,4.5906,4.5932,4.5963,4.5986,4.5958,4.6074,4.6085,4.6095,4.6133,4.6147,4.5977,4.5977,4.5976,4.5976,0,4.5251,4.5322,4.5373,4.5459,4.5508,4.5582,4.5623,4.567,4.5683,4.5716,4.5812,4.5867,4.5946,4.5973,4.5986,4.6088,4.6078,4.6067,4.6037,4.611,4.6146,4.6161,4.5979,4.5979,4.5978,4.5978,0,0,4.5338,4.544,4.5459,4.5499,4.5577,4.5634,4.5709,4.5787,4.5827,4.5887,4.5953,4.6053,4.6045,4.609,4.6109,4.6159,4.6242,4.6143,4.6145,4.6162,4.6361,4.637,4.6386,4.6244,4.6247,4.6249,4.6356,0,4.5431,4.5565,4.5595,4.5711,4.5779,4.5792,4.5858,4.5914,4.5947,4.6011,4.6048,4.6119,4.6101,4.6129,4.6179,4.6221,4.6283,4.6213,4.6307,4.631,4.6292,4.6405,4.6414,4.6513,4.637,4.6373,4.6374,0,4.5556,4.5621,4.5745,4.5818,4.5847,4.5906,4.5982,4.6041,4.6106,4.6127,4.6179,4.6193,4.6274,4.6239,4.6353,4.6305,4.6345,4.6372,4.6376,4.6388,4.6348,4.6422,4.6544,4.656,4.6397,4.6395,4.6393,0,4.5611,4.5729,4.5819,4.5853,4.5939,4.5981,4.6018,4.6081,4.6127,4.6193,4.6224,4.6298,4.6339,4.6397,4.6432,4.6402,4.6543,4.651,4.6565,4.6564,4.6595,4.6593,4.6728,4.6617,4.6617,4.6617,4.6617,0,4.5713,4.5789,4.5845,4.5901,4.5987,4.6021,4.6106,4.6143,4.6199,4.6264,4.6278,4.6339,4.638,4.6447,4.6474,4.6566,4.6584,4.6604,4.6611,4.6605,4.6602,4.6633,4.6628,4.6621,4.662,4.6619,4.6618,0,4.5789,4.5829,4.5929,4.6003,4.6024,4.6084,4.6148,4.6204,4.6238,4.632,4.6341,4.6395,4.6475,4.6515,4.6613,4.6632,4.6736,4.6738,4.6715,4.6718,4.6771,4.6767,4.6933,4.6957,4.6827,4.6829,4.683,0,4.5852,4.5911,4.5992,4.6036,4.6076,4.6146,4.6194,4.623,4.6279,4.6359,4.6406,4.6486,4.6552,4.6679,4.6728,4.6804,4.6809,4.6862,4.6821,4.6813,4.6814,4.6811,4.6818,4.687,4.6871,4.6872,4.6873,0,4.5961,4.5979,4.6047,4.6123,4.618,4.6241,4.6302,4.6337,4.6383,4.6438,4.652,4.6572,4.6674,4.6754,4.6835,4.6875,4.6883,4.6886,4.6903,4.6898,4.6883,4.6895,4.6738,4.6882,4.6881,4.688,4.688,4.688,4.6034,4.6089,4.6155,4.6231,4.6281,4.6338,4.6395,4.6437,4.6506,4.6592,4.6609,4.6697,4.6763,4.6872,4.6915,4.6985,4.6974,4.6998,4.7005,4.7011,4.7015,4.687,4.6999,4.6999,4.6999,4.6999,4.6999,0,4.6147,4.619,4.626,4.6345,4.6406,4.6408,4.6476,4.6527,4.6604,4.6665,4.673,4.6826,4.6905,4.6961,4.7042,4.7087,4.7093,4.7108,4.7106,4.7116,4.7019,4.6997,4.7102,4.7102,4.7102,4.7102,4.7102,4.7102,4.6212,4.6305,4.6332,4.6451,4.6494,4.658,4.6619,4.6673,4.6722,4.6829,4.6895,4.6931,4.6991,4.7076,4.715,4.7164,4.7194,4.7209,4.7224,4.7133,4.7122,4.7112,4.7092,4.7215,4.7215,4.7316,4.7317,4.7318]}]]